Tracking 30995 objects as of 5-Jul-2025
HD Live streaming from Space Station
objects crossing your sky now

ONEWEB-0168

Track ONEWEB-0168 now!
10-day predictions
ONEWEB-0168 is classified as:


NORAD ID: 48068
Int'l Code: 2021-025AC
Perigee: 1,215.5 km
Apogee: 1,218.3 km
Inclination: 87.9 °
Period: 109.6 minutes
Semi major axis: 7587 km
RCS: Unknown
Launch date: March 25, 2021
Source: United States (US)
Launch site: VOSTOCHNY COSMODROME (VOSTO)
Your satellite tracking list
EUTE 25A (HB 5)
Track 1 satellite(s)




NASA's NSSDC Master Catalog

Two Line Element Set (TLE):
1 48068U 21025AC  25186.60998098  .00000002  00000-0 -28297-4 0  9992
2 48068  87.8956  29.0681 0001843  85.3111 274.8229 13.13470531208060
Source of the keplerian elements: AFSPC